Location: Haliburton Scout Reserve
(45.0900°N, 78.3200°W)
Time: 20:02:46
(UTC-04:00)

STRAND 1 - Pass Details

Date: 01 April 2023
Orbit: 767 x 779 km, 98.4° (Epoch: 06 June)

Event Time Altitude Azimuth Distance (km) Brightness Sun altitude
Rises 05:49:38 0° 126° (SE) 3,245 ? -11.9°
Reaches altitude 10° 05:52:23 10° 112° (ESE) 2,320 ? -11.5°
Maximum altitude 05:56:16 22° 62° (ENE) 1,632 ? -10.8°
Drops below altitude 10° 06:00:08 10° 13° (NNE) 2,326 ? -10.2°
Sets 06:02:53 0° 359° (N) 3,256 ? -9.7°
